Overview Statistics Trail Chart Weather Telemetry Raw packets
 

This is the latest recevied weather packets stored in our database for station/object G4KVI. If no packets are shown the sender has not sent any weather packets the latest 10 day(s).

<< 80 81 82 83 84 85 86 >>
Time Temp. Humidity Pressure Rain* Wind** Luminosity Snow
1788011706 18.89° C 91% 1001.6 hPa 0.76 mm - 172 W/m² -
1788011406 18.33° C 91% 1001.8 hPa 1.02 mm - 231 W/m² -
1788011106 18.33° C 92% 1001.8 hPa 1.27 mm - 466 W/m² -
1788010806 17.78° C 92% 1001.6 hPa 1.27 mm - 318 W/m² -
1788010506 17.78° C 92% 1001.9 hPa 1.27 mm - 243 W/m² -
1788010214 17.78° C 93% 1001.9 hPa 1.27 mm - 216 W/m² -
1788009906 17.78° C 93% 1001.6 hPa 1.27 mm - 193 W/m² -
1788009606 17.78° C 93% 1001.9 hPa 1.27 mm - 162 W/m² -
1788009306 17.22° C 93% 1001.7 hPa 1.27 mm - 143 W/m² -
1788009006 17.78° C 93% 1002 hPa 1.52 mm - 61 W/m² -
1788008706 18.33° C 93% 1001.9 hPa 2.03 mm - 49 W/m² -
1788008406 18.33° C 94% 1002.1 hPa 2.03 mm - 120 W/m² -
1788008109 18.33° C 94% 1002 hPa 2.03 mm - 108 W/m² -
1788007806 18.33° C 93% 1001.8 hPa 2.03 mm - 72 W/m² -
1788007506 18.33° C 93% 1001.7 hPa 1.78 mm - 78 W/m² -
1788007206 18.33° C 93% 1001.9 hPa 2.29 mm - 150 W/m² -
1788006906 18.33° C 94% 1001.6 hPa 3.05 mm - 131 W/m² -
1788006606 17.78° C 93% 1001.5 hPa 3.81 mm - 218 W/m² -
1788006306 17.78° C 93% 1001.8 hPa 4.32 mm - 274 W/m² -
1788006006 17.78° C 93% 1001.6 hPa 4.32 mm - 227 W/m² -
1788005706 17.78° C 93% 1001.9 hPa 4.32 mm - 112 W/m² -
1788005418 17.78° C 93% 1001.9 hPa 4.06 mm - 89 W/m² -
1788005106 17.78° C 93% 1001.9 hPa 3.56 mm - 71 W/m² -
1788004806 17.78° C 93% 1002.2 hPa 3.56 mm - 73 W/m² -
1788004506 17.78° C 93% 1002.3 hPa 4.06 mm - 135 W/m² -

* Rain latest hour (hover to see other rain measurements)
** Current wind speed in m/s (hover to see current wind gust speed)